星链-34877(STARLINK-34877)

导读

STARLINK-34877是美国于2025年9月18日发射的星链卫星,归属SpaceX公司的星链星座项目。星链项目旨在构建全球卫星互联网,为偏远地区等提供高速宽带服务。该卫星入轨后将和其他星链卫星组网,进一步拓展星链网络的覆盖范围,提升全球卫星互联网服务的容量与稳定性。

Basic Information
目录编号:
65630
目录名称:
STARLINK-34877
国际标识:
2025-210J
轨道中心:
EARTH
卫星名称:
星链-34877
卫星全名:
星链-34877(STARLINK-34877)
卫星状态:
在轨 (已飞行268 天)
发射日期:
2025-09-18 UTC
国别 :
美国 (US)
星等 :
--
Orbit Information
数据来源 国际轨道数据 AOE轨道数据
星历时间 2026-06-12T19:39:00+0800
1天前
查看轨道信息
2026-06-10T05:00:00+0800
3天前
查看轨道信息
半长轴 6840.788km 6840.891km
偏心率 0.0001507 0.0001549
轨道倾角 53.159° 53.154°
近地点辐角 108.468° 86.127°
升交点赤经 225.426° 237.634°
平近点角 251.649° 246.385°
近地点 461.62km 461.694km
远地点 463.682km 463.814km
周期 93.847分钟 93.849分钟
每日圈数 15.344179 15.343832
Detailed Information
固有亮度:
5
最大亮度:
2.5
卫星平台:
Starlink V1.0
覆盖范围:
全球
运营商:
太空探索技术公司
运营商所在国:
美国
制造商(研发单位):
太空探索技术公司
制造商所在国:
美国
使用方式:
暂无
Satellite Introduction
Starlink 计划是 SpaceX 推出的全球卫星互联网项目,通过发射低轨道卫星,为全球尤其是偏远地区提供高速、低延迟的互联网服务。自 2019 年起,Starlink 已部署数千颗卫星,旨在缩小全球数字鸿沟,推动互联网普及。该项目还为军事、航空等行业提供通信支持,带来广泛经济效益。
2D Orbit Map
3D Orbit Map
Orbit Altitude Analysis Chart
Orbit Inclination Analysis Chart
Orbit Comprehensive Analysis Chart
View Comprehensive Chart